Home > Weather > Bergen > Past weeks

Flag for Norway Past Weather in Bergen, Norway — Yesterday and Last 2 Weeks

Now
56 °F

Cool.


Feels Like: 56 °F
Forecast: 49 / 64 °F
Wind: 3 mph from Southeast

Location: Bergen / Florida

Current Time: Jun 25, 2016 at 7:16:02 AM

Latest Report: Jun 25, 2016 at 6:00 AM


Visibility: N/A

Pressure: 30.01 "Hg

Humidity: 88%

Dew Point: 52 °F

Location of BergenLocation

Past Weather in Bergen — Graph

°F

Bergen Temperature Yesterday

Maximum temperature yesterday: 64 °F (at 10:00 AM)
Minimum temperature yesterday: 57 °F (at 4:00 AM)
Average temperature yesterday: 60 °F

High & Low Weather Summary for the Past Weeks

 TemperatureHumidityPressure
High74 °F (Jun 14, 2:00 PM)88% (Jun 24, 8:00 PM)30.13 "Hg (Jun 24, 8:00 PM)
Low45 °F (Jun 10, 6:00 AM)26% (Jun 14, 12:00 PM)29.55 "Hg (Jun 15, 1:00 PM)
Average60 °F63%29.83 "Hg
* Reported Jun 10 6:00 AM — Jun 25 6:00 AM, Bergen, Weather by CustomWeather, © 2016

Note: Actual official high and low records may vary slightly from our data, if they occured in-between our weather recording intervals... More about our weather records

Advertising

Bergen Weather History for the Previous 24 Hours

Scroll right to see more
 ConditionsComfort  
Time TempWeatherWind HumidityBarometerVisibility
6:00 AM
Sat, Jun 25
56 °FCool.3 mph88%30.01 "HgN/A
5:00 AM55 °FCool.3 mph88%30.01 "HgN/A
4:00 AM55 °FCool.3 mph88%30.01 "HgN/A
3:00 AM55 °FCool.3 mph88%30.00 "HgN/A
2:00 AM56 °FCool.5 mph88%30.00 "HgN/A
1:00 AM57 °FCool.3 mph88%29.99 "HgN/A
12:00 AM58 °FCool.1 mph88%29.97 "HgN/A
11:00 PM
Fri, Jun 24
58 °FDrizzle. Low clouds.3 mph87%29.95 "Hg3 mi
10:00 PM59 °FCool.1 mph87%29.92 "HgN/A
9:00 PM60 °FCool.2 mph87%29.89 "HgN/A
8:00 PM60 °FDrizzle. Low clouds.2 mph88%29.86 "Hg2 mi
7:00 PM60 °FCool.5 mph87%29.84 "HgN/A
6:00 PM61 °FCool.5 mph86%29.85 "HgN/A
5:00 PM61 °FLight rain. Low clouds.6 mph85%29.85 "Hg6 mi
4:00 PM61 °FCool.5 mph84%29.84 "HgN/A
3:00 PM62 °FCool.5 mph82%29.87 "HgN/A
2:00 PM63 °FLight rain. Overcast.2 mph80%29.88 "Hg16 mi
1:00 PM63 °FMild.2 mph82%29.90 "HgN/A
12:00 PM62 °FCool.2 mph81%29.92 "HgN/A
11:00 AM63 °FLight rain. Overcast.1 mph71%29.92 "Hg25 mi
10:00 AM64 °FMild.1 mph70%29.92 "HgN/A
9:00 AM62 °FCool.2 mph74%29.93 "HgN/A
8:00 AM60 °FPartly sunny.1 mph80%29.95 "Hg25 mi
7:00 AM59 °FCool.1 mph84%29.96 "HgN/A
Weather by CustomWeather, © 2016

See weather overviewHow to use our weather pages